星链-4212 (STARLINK-4212 )

导读

STARLINK-4212是美国太空探索技术公司于2022年6月17日发射的星链卫星,归属于星链互联网项目,旨在实现全球卫星互联网覆盖,为偏远地区、灾害现场等场景提供高速网络服务,该卫星发射后进入近地轨道运行,助力星链星座组网进程。

基本信息
目录编号:
52846
目录名称:
STARLINK-4212
国际标识:
2022-062S
轨道中心:
EARTH
卫星名称:
星链-4212
卫星全名:
星链-4212 (STARLINK-4212 )
卫星状态:
在轨 (已飞行1540 天)
发射日期:
2022-06-17 UTC
国别 :
美国 (US)
星等 :
--
轨道信息
数据来源 国际轨道数据
星历时间: 2026-09-03T12:11:28+0800
1天前
查看轨道信息
半长轴: 6848.887km
偏心率: 0.000132
轨道倾角: 53.160°
近地点辐角 82.631°
升交点赤经 309.726°
平近点角 277.485°
近地点: 469.845km
远地点: 471.655km
周期: 94.013分钟
每日圈数: 15.316968
详细信息
固有亮度:
5
最大亮度:
2.5
卫星平台:
Starlink v1.5
覆盖范围:
全球
运营商:
太空探索技术公司
运营商所在国:
美国
制造商(研发单位):
太空探索技术公司
制造商所在国:
美国
使用方式:
暂无
卫星简介
星链(Starlink)计划是由太空探索技术公司(SpaceX)提出的一个巨型低轨卫星互联网星座项目,计划在2019年至2024年间在太空搭建由约1.2万颗卫星组成的“星链”网络,其中1584颗将部署在地球上空550千米处的近地轨道,并从2020年开始工作。该卫星仍在工作。
2D轨道图
3D轨道图
轨道高度分析图
轨道倾角分析图
轨道综合分析图
查看轨道综合分析图